Location: Berg
(48.5667°N, 13.9833°E)
Time: 09:30:27
(UTC+00:00)

Meteor 1-16 Rocket - Pass Details

Date: 09 April 2020
Orbit: 791 x 907 km, 81.2° (Epoch: 24 May)

Event Time Altitude Azimuth Distance (km) Brightness Sun altitude
Rises 18:31:03 0° 191° (S) 3,314 7.2 -7.8°
Reaches altitude 10° 18:33:23 10° 192° (SSW) 2,400 6.5 -8.1°
Maximum altitude 18:38:50 86° 280° (W) 842 4.3 -9.0°
Drops below altitude 10° 18:44:30 10° 11° (N) 2,494 6.8 -9.8°
Sets 18:46:58 0° 12° (NNE) 3,453 7.6 -10.2°
